When you browse on this site, cookies collect data to enhance your experience and personalize the content and advertising you see.
Visit our Privacy Policy to learn more. By continuing to use the site, you agree to this use of cookies and data.
  • In Hungary
  • List of Countries
  • For 7 days
  • Water Temperature
  • Satellite Maps
  • Weather Map
  • News
  • Weather Widgets
  • user-avatar
    Login

    Hourly Weather Srednie Tigany

    Today, 20 May, Monday

    Time Temperature Precipitation Wind Pressure Humidity
    00:00 0°C° 0 mm 4 mps 753 mmHg 76%
    01:00 +1°C° 0 mm 3 mps 753 mmHg 78%
    02:00 +1°C° 0 mm 3 mps 754 mmHg 80%
    03:00 0°C° 0 mm 3 mps 753 mmHg 83%
    04:00 +1°C° 0 mm 3 mps 754 mmHg 80%
    05:00 +1°C° 0 mm 4 mps 754 mmHg 76%
    06:00 +3°C° 0 mm 4 mps 754 mmHg 73%
    07:00 +5°C° 0 mm 5 mps 754 mmHg 69%
    08:00 +6°C° 0 mm 5 mps 754 mmHg 66%
    09:00 +8°C° 0 mm 6 mps 754 mmHg 62%
    10:00 +8°C° 0.1 mm 6 mps 754 mmHg 61%
    11:00 +8°C° 0.1 mm 6 mps 754 mmHg 60%
    12:00 +9°C° 0.1 mm 6 mps 754 mmHg 58%
    13:00 +9°C° 0.1 mm 6 mps 753 mmHg 57%
    14:00 +10°C° 0.1 mm 6 mps 753 mmHg 55%
    15:00 +10°C° 0.1 mm 6 mps 753 mmHg 54%
    16:00 +10°C° 0.1 mm 5 mps 753 mmHg 57%
    17:00 +10°C° 0.1 mm 4 mps 753 mmHg 60%
    18:00 +10°C° 0.1 mm 4 mps 753 mmHg 63%
    19:00 +9°C° 0 mm 3 mps 754 mmHg 66%
    20:00 +7°C° 0 mm 3 mps 754 mmHg 68%
    21:00 +5°C° 0 mm 3 mps 754 mmHg 70%
    22:00 +5°C° 0 mm 3 mps 754 mmHg 72%
    23:00 +4°C° 0 mm 3 mps 754 mmHg 73%

    Tomorrow, 21 May, Tuesday

    Time Temperature Precipitation Wind Pressure Humidity
    00:00 +4°C° 0 mm 3 mps 754 mmHg 74%
    01:00 +3°C° 0 mm 3 mps 755 mmHg 75%
    02:00 +3°C° 0 mm 3 mps 755 mmHg 76%
    03:00 +3°C° 0 mm 3 mps 755 mmHg 78%
    04:00 +4°C° 0 mm 3 mps 755 mmHg 75%
    05:00 +5°C° 0 mm 4 mps 755 mmHg 73%
    06:00 +6°C° 0 mm 4 mps 756 mmHg 70%
    07:00 +7°C° 0 mm 4 mps 756 mmHg 63%
    08:00 +9°C° 0 mm 5 mps 756 mmHg 56%
    09:00 +12°C° 0 mm 5 mps 756 mmHg 48%
    10:00 +12°C° 0 mm 5 mps 756 mmHg 47%
    11:00 +13°C° 0 mm 5 mps 755 mmHg 45%
    12:00 +13°C° 0 mm 5 mps 755 mmHg 44%
    13:00 +13°C° 0 mm 5 mps 755 mmHg 44%
    14:00 +14°C° 0 mm 5 mps 755 mmHg 43%
    15:00 +14°C° 0 mm 5 mps 755 mmHg 43%
    16:00 +13°C° 0 mm 4 mps 755 mmHg 48%
    17:00 +13°C° 0 mm 3 mps 755 mmHg 52%
    18:00 +13°C° 0 mm 3 mps 755 mmHg 57%
    19:00 +12°C° 0 mm 2 mps 755 mmHg 59%
    20:00 +10°C° 0 mm 2 mps 755 mmHg 61%
    21:00 +8°C° 0 mm 2 mps 755 mmHg 64%
    22:00 +8°C° 0 mm 2 mps 755 mmHg 66%
    23:00 +7°C° 0 mm 2 mps 755 mmHg 67%

    Day after tomorrow, 22 May, Wednesday

    Time Temperature Precipitation Wind Pressure Humidity
    00:00 +7°C° 0 mm 2 mps 755 mmHg 69%
    01:00 +7°C° 0 mm 2 mps 755 mmHg 71%
    02:00 +7°C° 0 mm 2 mps 755 mmHg 73%
    03:00 +7°C° 0 mm 3 mps 755 mmHg 76%
    04:00 +7°C° 0 mm 3 mps 754 mmHg 79%
    05:00 +8°C° 0 mm 3 mps 754 mmHg 82%
    06:00 +9°C° 0 mm 3 mps 754 mmHg 85%
    07:00 +9°C° 0.5 mm 3 mps 753 mmHg 86%
    08:00 +9°C° 0.5 mm 3 mps 753 mmHg 87%
    09:00 +8°C° 0.5 mm 4 mps 753 mmHg 88%
    10:00 +10°C° 0.1 mm 3 mps 752 mmHg 88%
    11:00 +10°C° 0.1 mm 3 mps 752 mmHg 88%
    12:00 +10°C° 0.1 mm 3 mps 752 mmHg 88%
    13:00 +11°C° 0 mm 3 mps 751 mmHg 85%
    14:00 +13°C° 0 mm 2 mps 751 mmHg 83%
    15:00 +14°C° 0 mm 2 mps 751 mmHg 81%
    16:00 +14°C° 0 mm 2 mps 750 mmHg 83%
    17:00 +14°C° 0 mm 1 mps 750 mmHg 84%
    18:00 +14°C° 0 mm 1 mps 750 mmHg 86%
    19:00 +13°C° 0.1 mm 1 mps 750 mmHg 89%
    20:00 +13°C° 0.1 mm 2 mps 749 mmHg 92%
    21:00 +12°C° 0.1 mm 2 mps 749 mmHg 95%
    22:00 +11°C° 1 mm 3 mps 749 mmHg 96%
    23:00 +12°C° 1 mm 3 mps 748 mmHg 96%

    23 May, Thursday

    Time Temperature Precipitation Wind Pressure Humidity
    00:00 +12°C° 1 mm 3 mps 748 mmHg 97%
    01:00 +12°C° 0.5 mm 4 mps 748 mmHg 96%
    02:00 +12°C° 0.5 mm 4 mps 747 mmHg 96%
    03:00 +12°C° 0.5 mm 4 mps 747 mmHg 95%
    04:00 +12°C° 0.1 mm 5 mps 746 mmHg 94%
    05:00 +13°C° 0.1 mm 5 mps 746 mmHg 93%
    06:00 +13°C° 0.1 mm 6 mps 745 mmHg 92%
    07:00 +13°C° 2.1 mm 6 mps 745 mmHg 93%
    08:00 +13°C° 2.1 mm 6 mps 745 mmHg 94%
    09:00 +13°C° 2.1 mm 6 mps 745 mmHg 96%
    10:00 +14°C° 0.4 mm 6 mps 744 mmHg 94%
    11:00 +15°C° 0.4 mm 6 mps 744 mmHg 92%
    12:00 +16°C° 0.4 mm 6 mps 744 mmHg 91%
    13:00 +16°C° 1 mm 6 mps 744 mmHg 91%
    14:00 +15°C° 1 mm 5 mps 744 mmHg 92%
    15:00 +15°C° 1 mm 5 mps 744 mmHg 92%
    16:00 +15°C° 0.4 mm 4 mps 744 mmHg 91%
    17:00 +15°C° 0.4 mm 4 mps 744 mmHg 89%
    18:00 +17°C° 0.4 mm 3 mps 744 mmHg 88%
    19:00 +14°C° 0 mm 3 mps 745 mmHg 88%
    20:00 +13°C° 0 mm 3 mps 745 mmHg 88%
    21:00 +12°C° 0 mm 3 mps 746 mmHg 89%
    22:00 +11°C° 0 mm 3 mps 746 mmHg 87%
    23:00 +10°C° 0 mm 3 mps 747 mmHg 86%

    24 May, Friday

    Time Temperature Precipitation Wind Pressure Humidity
    00:00 +8°C° 0 mm 4 mps 747 mmHg 84%
    01:00 +7°C° 0 mm 4 mps 748 mmHg 83%
    02:00 +7°C° 0 mm 3 mps 748 mmHg 83%
    03:00 +5°C° 0 mm 3 mps 749 mmHg 82%
    04:00 +5°C° 0 mm 3 mps 749 mmHg 80%
    05:00 +7°C° 0 mm 3 mps 750 mmHg 78%
    06:00 +7°C° 0 mm 4 mps 750 mmHg 75%
    07:00 +9°C° 0 mm 3 mps 751 mmHg 69%
    08:00 +10°C° 0 mm 3 mps 751 mmHg 62%
    09:00 +11°C° 0 mm 3 mps 751 mmHg 55%
    10:00 +12°C° 0 mm 3 mps 751 mmHg 52%
    11:00 +14°C° 0 mm 2 mps 751 mmHg 49%
    12:00 +14°C° 0 mm 2 mps 751 mmHg 46%
    13:00 +15°C° 0 mm 2 mps 751 mmHg 45%
    14:00 +15°C° 0 mm 2 mps 751 mmHg 45%
    15:00 +15°C° 0 mm 1 mps 751 mmHg 44%
    16:00 +15°C° 0 mm 1 mps 751 mmHg 49%
    17:00 +15°C° 0 mm 1 mps 751 mmHg 53%
    18:00 +14°C° 0 mm 1 mps 751 mmHg 58%
    19:00 +13°C° 0 mm 1 mps 752 mmHg 59%
    20:00 +10°C° 0 mm 2 mps 752 mmHg 61%
    21:00 +9°C° 0 mm 2 mps 752 mmHg 63%
    22:00 +8°C° 0 mm 2 mps 753 mmHg 65%
    23:00 +8°C° 0 mm 2 mps 753 mmHg 66%

    25 May, Saturday

    Time Temperature Precipitation Wind Pressure Humidity
    00:00 +7°C° 0 mm 2 mps 753 mmHg 68%
    01:00 +7°C° 0 mm 2 mps 753 mmHg 69%
    02:00 +7°C° 0 mm 3 mps 753 mmHg 69%
    03:00 +5°C° 0 mm 3 mps 754 mmHg 70%
    04:00 +7°C° 0 mm 3 mps 754 mmHg 70%
    05:00 +8°C° 0 mm 3 mps 754 mmHg 70%
    06:00 +8°C° 0 mm 4 mps 754 mmHg 70%
    07:00 +10°C° 0 mm 4 mps 754 mmHg 66%
    08:00 +12°C° 0 mm 4 mps 754 mmHg 63%
    09:00 +13°C° 0 mm 5 mps 754 mmHg 60%
    10:00 +14°C° 0 mm 5 mps 754 mmHg 60%
    11:00 +14°C° 0 mm 4 mps 754 mmHg 60%
    12:00 +15°C° 0 mm 4 mps 754 mmHg 61%
    13:00 +14°C° 0.1 mm 4 mps 754 mmHg 66%
    14:00 +13°C° 0.1 mm 3 mps 754 mmHg 71%
    15:00 +12°C° 0.1 mm 3 mps 753 mmHg 76%
    16:00 +13°C° 0 mm 3 mps 753 mmHg 77%
    17:00 +13°C° 0 mm 3 mps 753 mmHg 77%
    18:00 +13°C° 0 mm 4 mps 753 mmHg 78%
    19:00 +13°C° 0.3 mm 4 mps 753 mmHg 81%
    20:00 +12°C° 0.3 mm 4 mps 753 mmHg 84%
    21:00 +12°C° 0.3 mm 5 mps 753 mmHg 87%
    22:00 +12°C° 0 mm 5 mps 753 mmHg 86%
    23:00 +10°C° 0 mm 5 mps 753 mmHg 85%
    Show more